Content
SEND FEEDBACK

Daily
Averages
Monthly
Summary
United States of America

RAPID CITY, SOUTH DAKOTA


Home > North America > United States > South Dakota
Elevation: 3162 feet     Latitude: 44 03N     Longitude: 103 04W

WEATHER
 
SELECT A DAY
Number of Records: 200,552;   Date Range: 1/1/95 - 9/20/14
 
SHARE

PRINT THIS DATA

[ ← Previous Day ]
WEATHER ALMANAC - JANUARY 29, 2013
[ Next Day → ]
[ °C ]   °F
Weather ElementAverageHighLow
Temperature21.9 °F35.1 °F (1:52 pm)6.1 °F (11:52 pm)
Dewpoint14.8 °F23 °F (1:52 am) (7:00 pm)
Humidity74.8 %86 % (5:28 pm)59 % (1:52 pm)
Barometer29.91 in30.14 in (8:52 pm)29.78 in (2:52 am)
Wind Speed20.3 mph35.7 mph (6:52 pm)
Wind Gust44.9 mph (5:28 pm)
Weather ElementAverage
Visibility9.1 mi
Wind DirectionNNW (327.2 °)

Weather ElementTotal
Precipitation---
Heating Degree Days44.4 (Base 65)
Averaged from 32 records on January 29, 2013
WEATHER CONDITIONS BREAKOUT
WIND DIRECTION BREAKOUT
WEATHER BY HOUR - JANUARY 29, 2013
[ °C ]   °F
Local TimeTemperatureDewpointHumidityBarometerVisibilityWind DirectionWind SpeedGust SpeedPrecipitationEventsConditions
1:52 AM27.0 °F23.0 °F85 %29.79 in10.0 miWNW (290°)5.8 mphOvercast
2:52 AM26.1 °F21.0 °F81 %29.78 in10.0 miNW (310°)4.6 mphOvercast
3:52 AM27.0 °F21.9 °F81 %29.78 in10.0 miWNW (300°)5.8 mphOvercast
4:52 AM24.1 °F19.9 °F84 %29.78 in10.0 miWNW (300°)3.5 mphOvercast
5:52 AM18.0 °F14.0 °F84 %29.80 in10.0 miNW (310°)4.6 mphClear
6:52 AM14.0 °F9.0 °F80 %29.82 in10.0 miWNW (300°)4.6 mphClear
7:52 AM18.0 °F12.0 °F78 %29.82 in10.0 miNW (310°)8.1 mphClear
8:52 AM25.0 °F16.0 °F69 %29.81 in10.0 miWNW (300°)5.8 mphClear
9:52 AM30.0 °F18.0 °F61 %29.81 in10.0 miWNW (300°)8.1 mphClear
10:52 AM33.1 °F21.0 °F61 %29.82 in10.0 miNorth (360°)6.9 mphClear
11:52 AM32.0 °F19.9 °F61 %29.84 in10.0 miNNW (340°)18.4 mphClear
12:52 PM33.1 °F21.9 °F64 %29.82 in10.0 miNorth (350°)15.0 mphClear
1:52 PM35.1 °F21.9 °F59 %29.83 in10.0 miNorth (350°)20.7 mph25.3 mphClear
2:52 PM34.0 °F21.9 °F61 %29.85 in10.0 miNNW (340°)23.0 mphClear
3:52 PM30.0 °F21.9 °F72 %29.88 in10.0 miNNW (340°)20.7 mph31.1 mphClear
4:21 PM28.4 °F23.0 °F80 %29.80 in8.0 miNNW (340°)31.1 mph38.0 mph0.00 inSnowLight Snow
4:36 PM26.6 °F21.2 °F80 %29.81 in10.0 miNNW (330°)31.1 mph40.3 mph0.00 inScattered Clouds
4:52 PM25.0 °F21.0 °F85 %29.94 in10.0 miNNW (330°)32.2 mph38.0 mph0.00 inScattered Clouds
5:28 PM21.2 °F17.6 °F86 %29.86 in4.0 miNNW (330°)32.2 mph44.9 mph0.00 inSnowLight Snow
5:47 PM21.2 °F15.8 °F80 %29.88 in3.0 miNNW (340°)27.6 mph39.1 mph0.00 inSnowLight Snow
5:52 PM21.0 °F16.0 °F81 %30.03 in4.0 miNNW (340°)31.1 mph36.8 mph0.00 inSnowLight Snow
6:13 PM19.4 °F15.8 °F86 %29.90 in4.0 miNNW (330°)31.1 mph42.6 mph0.00 inSnowLight Snow
6:31 PM17.6 °F12.2 °F79 %29.92 in9.0 miNNW (340°)31.1 mph39.1 mph0.00 inOvercast
6:41 PM17.6 °F10.4 °F73 %29.92 in10.0 miNNW (330°)29.9 mph39.1 mph0.00 inSnowLight Snow
6:52 PM18.0 °F10.0 °F71 %30.09 in9.0 miNNW (330°)35.7 mph44.9 mph0.00 inSnowLight Snow
7:52 PM15.1 °F9.0 °F77 %30.12 in10.0 miNNW (340°)25.3 mph34.5 mph0.00 inClear
8:52 PM12.9 °F6.1 °F74 %30.14 in10.0 miNNW (330°)27.6 mph35.7 mphOvercast
9:08 PM12.2 °F5.0 °F73 %29.98 in10.0 miNNW (330°)27.6 mph36.8 mphOvercast
9:42 PM12.2 °F3.2 °F67 %29.98 in10.0 miNNW (330°)33.4 mph43.7 mphOvercast
9:52 PM12.0 °F3.9 °F70 %30.12 in10.0 miNNW (330°)28.8 mph41.4 mphOvercast
10:52 PM8.1 °F1.0 °F73 %30.12 in10.0 miNNW (340°)25.3 mph34.5 mphClear
11:52 PM6.1 °F0.0 °F76 %30.14 in10.0 miNNW (330°)13.8 mphOvercast
Hourly data recorded from KRAP, located miles away from Rapid City, South Dakota







STORIES FROM OUR PARTNERS